Time,TemperatureF,DewpointF,PressureIn,WindDirection,WindDirectionDegrees,WindSpeedMPH,WindSpeedGustMPH,Humidity,HourlyPrecipIn,Conditions,Clouds,dailyrainin,SoftwareType,DateUTC
2013-03-02 00:00:00,44.3,35.8,29.94,NW,315,0.0,0.2,72,0.00,,,0.00,WUHU216HW,2013-03-02 05:00:00,
2013-03-02 00:01:00,44.1,35.6,29.94,WNW,293,0.2,0.2,72,0.00,,,0.00,WUHU216HW,2013-03-02 05:01:00,
2013-03-02 00:06:00,43.9,35.5,29.94,NNW,338,0.4,0.4,72,0.00,,,0.00,WUHU216HW,2013-03-02 05:06:00,
2013-03-02 00:11:00,43.9,35.5,29.94,WNW,293,0.2,0.9,72,0.00,,,0.00,WUHU216HW,2013-03-02 05:11:00,
2013-03-02 00:16:00,43.9,35.5,29.94,WNW,293,0.2,0.9,72,0.00,,,0.00,WUHU216HW,2013-03-02 05:16:00,
2013-03-02 00:21:00,43.9,35.5,29.94,WNW,293,0.2,0.4,72,0.00,,,0.00,WUHU216HW,2013-03-02 05:21:00,
2013-03-02 00:26:00,43.9,35.5,29.94,NW,315,0.0,0.4,72,0.00,,,0.00,WUHU216HW,2013-03-02 05:26:00,
2013-03-02 00:31:00,43.9,35.5,29.94,NW,315,0.2,0.4,72,0.00,,,0.00,WUHU216HW,2013-03-02 05:31:00,
2013-03-02 00:36:00,43.7,35.0,29.94,NNW,338,1.1,1.1,71,0.00,,,0.00,WUHU216HW,2013-03-02 05:36:00,
2013-03-02 00:41:00,43.6,34.8,29.94,NW,315,1.3,1.3,71,0.00,,,0.00,WUHU216HW,2013-03-02 05:41:00,
2013-03-02 00:46:00,43.6,34.8,29.94,NNW,338,0.4,1.3,71,0.00,,,0.00,WUHU216HW,2013-03-02 05:46:00,
2013-03-02 00:51:00,43.6,34.8,29.94,NW,315,1.1,1.1,71,0.00,,,0.00,WUHU216HW,2013-03-02 05:51:00,
2013-03-02 00:56:00,43.6,34.8,29.94,WNW,293,0.4,1.8,71,0.00,,,0.00,WUHU216HW,2013-03-02 05:56:00,
2013-03-02 01:01:00,43.6,34.8,29.94,NNW,338,0.7,1.8,71,0.00,,,0.00,WUHU216HW,2013-03-02 06:01:00,
2013-03-02 01:06:00,43.6,34.8,29.94,NNW,338,0.7,1.8,71,0.00,,,0.00,WUHU216HW,2013-03-02 06:06:00,
2013-03-02 01:11:00,43.6,34.8,29.94,WNW,293,0.4,1.8,71,0.00,,,0.00,WUHU216HW,2013-03-02 06:11:00,
2013-03-02 01:16:00,43.4,34.7,29.94,WNW,293,1.1,1.8,71,0.00,,,0.00,WUHU216HW,2013-03-02 06:16:00,
2013-03-02 01:21:00,43.4,34.7,29.94,NW,315,2.2,2.2,71,0.00,,,0.00,WUHU216HW,2013-03-02 06:21:00,
2013-03-02 01:26:00,43.2,34.5,29.94,NW,315,1.3,2.2,71,0.00,,,0.00,WUHU216HW,2013-03-02 06:26:00,
2013-03-02 01:31:00,43.2,34.5,29.94,NNW,338,2.7,2.7,71,0.00,,,0.00,WUHU216HW,2013-03-02 06:31:00,
2013-03-02 01:36:00,43.2,34.5,29.94,NW,315,2.0,2.7,71,0.00,,,0.00,WUHU216HW,2013-03-02 06:36:00,
2013-03-02 01:41:00,43.0,34.3,29.94,WNW,293,1.6,2.5,71,0.00,,,0.00,WUHU216HW,2013-03-02 06:41:00,
2013-03-02 01:46:00,43.0,34.3,29.94,NW,315,1.1,2.5,71,0.00,,,0.00,WUHU216HW,2013-03-02 06:46:00,
2013-03-02 01:51:00,42.8,34.2,29.94,WNW,293,1.6,2.5,71,0.00,,,0.00,WUHU216HW,2013-03-02 06:51:00,
2013-03-02 01:56:00,42.8,34.2,29.94,WNW,293,1.6,2.0,71,0.00,,,0.00,WUHU216HW,2013-03-02 06:56:00,
2013-03-02 02:01:00,42.7,34.0,29.93,NW,315,1.8,2.5,71,0.00,,,0.00,WUHU216HW,2013-03-02 07:01:00,
2013-03-02 02:06:00,42.5,33.9,29.93,NW,315,2.2,2.5,71,0.00,,,0.00,WUHU216HW,2013-03-02 07:06:00,
2013-03-02 02:11:00,42.5,33.9,29.93,NW,315,1.1,2.2,71,0.00,,,0.00,WUHU216HW,2013-03-02 07:11:00,
2013-03-02 02:16:00,42.3,33.7,29.93,NW,315,1.8,1.8,71,0.00,,,0.00,WUHU216HW,2013-03-02 07:16:00,
2013-03-02 02:21:00,42.1,33.5,29.93,NW,315,1.6,1.8,71,0.00,,,0.00,WUHU216HW,2013-03-02 07:21:00,
2013-03-02 02:26:00,42.1,33.5,29.93,WNW,293,0.4,1.6,71,0.00,,,0.00,WUHU216HW,2013-03-02 07:26:00,
2013-03-02 02:31:00,42.1,33.5,29.92,WNW,293,0.7,1.8,71,0.00,,,0.00,WUHU216HW,2013-03-02 07:31:00,
2013-03-02 02:36:00,41.9,33.3,29.92,NNW,338,1.6,1.8,71,0.00,,,0.00,WUHU216HW,2013-03-02 07:36:00,
2013-03-02 02:41:00,41.9,33.3,29.92,NW,315,0.7,2.0,71,0.00,,,0.00,WUHU216HW,2013-03-02 07:41:00,
2013-03-02 02:46:00,41.8,33.1,29.92,WNW,293,0.9,2.0,71,0.00,,,0.00,WUHU216HW,2013-03-02 07:46:00,
2013-03-02 02:51:00,41.6,33.0,29.92,NNW,338,0.7,1.8,71,0.00,,,0.00,WUHU216HW,2013-03-02 07:51:00,
2013-03-02 02:56:00,41.4,32.8,29.92,NNW,338,1.8,1.8,71,0.00,,,0.00,WUHU216HW,2013-03-02 07:56:00,
2013-03-02 03:01:00,41.4,32.8,29.92,WNW,293,0.9,1.8,71,0.00,,,0.00,WUHU216HW,2013-03-02 08:01:00,
2013-03-02 03:06:00,41.4,32.8,29.92,NW,315,0.9,1.3,71,0.00,,,0.00,WUHU216HW,2013-03-02 08:06:00,
2013-03-02 03:11:00,41.2,32.6,29.92,NW,315,0.9,1.6,71,0.00,,,0.00,WUHU216HW,2013-03-02 08:11:00,
2013-03-02 03:16:00,41.0,32.4,29.92,NW,315,0.4,1.6,71,0.00,,,0.00,WUHU216HW,2013-03-02 08:16:00,
2013-03-02 03:21:00,41.0,32.4,29.92,NW,315,0.4,1.1,71,0.00,,,0.00,WUHU216HW,2013-03-02 08:21:00,
2013-03-02 03:26:00,40.9,32.2,29.91,NW,315,0.4,1.1,71,0.00,,,0.00,WUHU216HW,2013-03-02 08:26:00,
2013-03-02 03:31:00,40.7,32.1,29.91,NNW,338,0.4,1.3,71,0.00,,,0.00,WUHU216HW,2013-03-02 08:31:00,
2013-03-02 03:36:00,40.7,32.3,29.91,NW,315,0.7,1.3,72,0.00,,,0.00,WUHU216HW,2013-03-02 08:36:00,
2013-03-02 03:41:00,40.5,32.1,29.91,NW,315,0.9,1.3,72,0.00,,,0.00,WUHU216HW,2013-03-02 08:41:00,
2013-03-02 03:46:00,40.5,32.1,29.91,WNW,293,1.1,1.3,72,0.00,,,0.00,WUHU216HW,2013-03-02 08:46:00,
2013-03-02 03:51:00,40.3,32.0,29.91,NNW,338,0.4,1.6,72,0.00,,,0.00,WUHU216HW,2013-03-02 08:51:00,
2013-03-02 03:56:00,40.3,32.0,29.91,NW,315,1.3,1.6,72,0.00,,,0.00,WUHU216HW,2013-03-02 08:56:00,
2013-03-02 04:01:00,40.1,31.8,29.92,NNW,338,0.9,1.3,72,0.00,,,0.00,WUHU216HW,2013-03-02 09:01:00,
2013-03-02 04:06:00,40.1,31.8,29.92,NW,315,0.7,1.3,72,0.00,,,0.00,WUHU216HW,2013-03-02 09:06:00,
2013-03-02 04:11:00,40.0,31.6,29.92,NW,315,0.2,0.9,72,0.00,,,0.00,WUHU216HW,2013-03-02 09:11:00,
2013-03-02 04:16:00,40.0,32.0,29.91,NW,315,1.1,1.1,73,0.00,,,0.00,WUHU216HW,2013-03-02 09:16:00,
2013-03-02 04:21:00,40.0,32.0,29.91,NNW,338,0.9,1.1,73,0.00,,,0.00,WUHU216HW,2013-03-02 09:21:00,
2013-03-02 04:26:00,40.0,32.0,29.91,NNW,338,0.4,1.1,73,0.00,,,0.00,WUHU216HW,2013-03-02 09:26:00,
2013-03-02 04:31:00,39.8,31.8,29.92,NW,315,0.7,1.1,73,0.00,,,0.00,WUHU216HW,2013-03-02 09:31:00,
2013-03-02 04:36:00,39.6,31.6,29.92,NW,315,0.2,0.9,73,0.00,,,0.00,WUHU216HW,2013-03-02 09:36:00,
2013-03-02 04:41:00,39.6,31.6,29.92,NW,315,0.0,0.9,73,0.00,,,0.00,WUHU216HW,2013-03-02 09:41:00,
2013-03-02 04:46:00,39.4,31.4,29.92,NNW,338,1.1,1.1,73,0.00,,,0.00,WUHU216HW,2013-03-02 09:46:00,
2013-03-02 04:51:00,39.2,31.2,29.92,West,270,0.4,1.1,73,0.00,,,0.00,WUHU216HW,2013-03-02 09:51:00,
2013-03-02 04:56:00,39.2,31.6,29.92,NNW,338,0.4,1.1,74,0.00,,,0.00,WUHU216HW,2013-03-02 09:56:00,
2013-03-02 05:01:00,39.1,31.4,29.92,NW,315,0.7,1.3,74,0.00,,,0.00,WUHU216HW,2013-03-02 10:01:00,
2013-03-02 05:06:00,39.1,31.4,29.92,NW,315,0.2,1.3,74,0.00,,,0.00,WUHU216HW,2013-03-02 10:06:00,
2013-03-02 05:11:00,38.9,31.2,29.92,NW,315,0.4,0.7,74,0.00,,,0.00,WUHU216HW,2013-03-02 10:11:00,
2013-03-02 05:16:00,38.9,31.2,29.92,NNW,338,0.7,0.7,74,0.00,,,0.00,WUHU216HW,2013-03-02 10:16:00,
2013-03-02 05:21:00,38.7,31.2,29.92,NNW,338,0.4,1.1,74,0.00,,,0.00,WUHU216HW,2013-03-02 10:21:00,
2013-03-02 05:26:00,38.5,31.0,29.92,WNW,293,0.7,1.1,74,0.00,,,0.00,WUHU216HW,2013-03-02 10:26:00,
2013-03-02 05:31:00,38.5,31.0,29.92,NW,315,0.4,1.1,74,0.00,,,0.00,WUHU216HW,2013-03-02 10:31:00,
2013-03-02 05:36:00,38.5,31.0,29.92,NNW,338,0.4,1.1,74,0.00,,,0.00,WUHU216HW,2013-03-02 10:36:00,
2013-03-02 05:41:00,38.3,31.1,29.93,NW,315,0.4,0.9,75,0.00,,,0.00,WUHU216HW,2013-03-02 10:41:00,
2013-03-02 05:46:00,38.3,31.1,29.93,WNW,293,0.4,0.9,75,0.00,,,0.00,WUHU216HW,2013-03-02 10:46:00,
2013-03-02 05:51:00,38.2,31.0,29.93,NW,315,0.7,0.7,75,0.00,,,0.00,WUHU216HW,2013-03-02 10:51:00,
2013-03-02 05:56:00,38.2,31.0,29.92,NW,315,0.7,1.3,75,0.00,,,0.00,WUHU216HW,2013-03-02 10:56:00,
2013-03-02 06:01:00,38.2,31.0,29.92,NW,315,0.4,1.3,75,0.00,,,0.00,WUHU216HW,2013-03-02 11:01:00,
2013-03-02 06:06:00,38.2,31.0,29.92,NW,315,0.4,1.1,75,0.00,,,0.00,WUHU216HW,2013-03-02 11:06:00,
2013-03-02 06:11:00,38.2,31.0,29.92,NW,315,0.4,0.7,75,0.00,,,0.00,WUHU216HW,2013-03-02 11:11:00,
2013-03-02 06:16:00,38.0,30.8,29.92,NNW,338,0.0,0.7,75,0.00,,,0.00,WUHU216HW,2013-03-02 11:16:00,
2013-03-02 06:21:00,38.0,30.8,29.92,NW,315,0.0,0.4,75,0.00,,,0.00,WUHU216HW,2013-03-02 11:21:00,
2013-03-02 06:26:00,38.0,30.8,29.92,NW,315,0.0,0.0,75,0.00,,,0.00,WUHU216HW,2013-03-02 11:26:00,
2013-03-02 06:31:00,37.8,30.6,29.92,NNW,338,0.4,0.4,75,0.00,,,0.00,WUHU216HW,2013-03-02 11:31:00,
2013-03-02 06:36:00,37.8,30.6,29.92,NNW,338,0.9,0.9,75,0.00,,,0.00,WUHU216HW,2013-03-02 11:36:00,
2013-03-02 06:41:00,37.8,30.6,29.92,North,0,0.4,0.9,75,0.00,,,0.00,WUHU216HW,2013-03-02 11:41:00,
2013-03-02 06:46:00,37.6,30.4,29.92,NNW,338,0.2,0.7,75,0.00,,,0.00,WUHU216HW,2013-03-02 11:46:00,
2013-03-02 06:51:00,37.6,30.8,29.92,NW,315,0.4,0.4,76,0.00,,,0.00,WUHU216HW,2013-03-02 11:51:00,
2013-03-02 06:56:00,37.4,30.6,29.92,NW,315,0.0,0.4,76,0.00,,,0.00,WUHU216HW,2013-03-02 11:56:00,
2013-03-02 07:01:00,37.4,30.6,29.92,NW,315,0.4,0.4,76,0.00,,,0.00,WUHU216HW,2013-03-02 12:01:00,
2013-03-02 07:06:00,37.4,30.6,29.92,NW,315,0.9,0.9,76,0.00,,,0.00,WUHU216HW,2013-03-02 12:06:00,
2013-03-02 07:11:00,37.4,30.6,29.92,NNW,338,1.1,1.1,76,0.00,,,0.00,WUHU216HW,2013-03-02 12:11:00,
2013-03-02 07:16:00,37.4,30.6,29.92,NW,315,0.4,1.1,76,0.00,,,0.00,WUHU216HW,2013-03-02 12:16:00,
2013-03-02 07:21:00,37.4,30.6,29.92,NW,315,0.7,1.3,76,0.00,,,0.00,WUHU216HW,2013-03-02 12:21:00,
2013-03-02 07:26:00,37.4,30.6,29.92,NW,315,0.4,1.3,76,0.00,,,0.00,WUHU216HW,2013-03-02 12:26:00,
2013-03-02 07:31:00,37.6,31.1,29.92,NNW,338,0.2,0.9,77,0.00,,,0.00,WUHU216HW,2013-03-02 12:31:00,
2013-03-02 07:36:00,37.8,31.2,29.93,NNW,338,0.7,0.7,77,0.00,,,0.00,WUHU216HW,2013-03-02 12:36:00,
2013-03-02 07:41:00,37.8,31.2,29.93,NNW,338,0.4,0.7,77,0.00,,,0.00,WUHU216HW,2013-03-02 12:41:00,
2013-03-02 07:46:00,38.0,31.4,29.93,NW,315,0.9,1.1,77,0.00,,,0.00,WUHU216HW,2013-03-02 12:46:00,
2013-03-02 07:51:00,38.2,31.2,29.93,NW,315,0.9,1.1,76,0.00,,,0.00,WUHU216HW,2013-03-02 12:51:00,
2013-03-02 07:56:00,38.3,31.8,29.93,NW,315,0.4,1.1,77,0.00,,,0.00,WUHU216HW,2013-03-02 12:56:00,
2013-03-02 08:01:00,38.5,32.0,29.93,WNW,293,1.1,1.8,77,0.00,,,0.00,WUHU216HW,2013-03-02 13:01:00,
2013-03-02 08:06:00,39.1,32.5,29.93,West,270,1.6,1.8,77,0.00,,,0.00,WUHU216HW,2013-03-02 13:06:00,
2013-03-02 08:11:00,39.4,32.8,29.93,WSW,248,0.9,1.8,77,0.00,,,0.00,WUHU216HW,2013-03-02 13:11:00,
2013-03-02 08:16:00,39.8,33.1,29.93,WSW,248,0.7,1.8,77,0.00,,,0.00,WUHU216HW,2013-03-02 13:16:00,
2013-03-02 08:21:00,40.3,33.3,29.93,West,270,1.6,1.8,76,0.00,,,0.00,WUHU216HW,2013-03-02 13:21:00,
2013-03-02 08:26:00,40.9,34.1,29.93,NW,315,1.1,1.8,77,0.00,,,0.00,WUHU216HW,2013-03-02 13:26:00,
2013-03-02 08:31:00,41.6,34.2,29.93,NNW,338,0.4,1.8,75,0.00,,,0.00,WUHU216HW,2013-03-02 13:31:00,
2013-03-02 08:36:00,42.5,35.1,29.93,WNW,293,1.3,1.8,75,0.00,,,0.00,WUHU216HW,2013-03-02 13:36:00,
2013-03-02 08:41:00,42.8,35.1,29.93,NW,315,1.3,1.8,74,0.00,,,0.00,WUHU216HW,2013-03-02 13:41:00,
2013-03-02 08:46:00,42.8,34.8,29.93,West,270,1.8,3.4,73,0.00,,,0.00,WUHU216HW,2013-03-02 13:46:00,
2013-03-02 08:51:00,43.2,34.8,29.93,NW,315,1.3,3.4,72,0.00,,,0.00,WUHU216HW,2013-03-02 13:51:00,
2013-03-02 08:56:00,43.4,35.0,29.93,WSW,248,2.9,3.6,72,0.00,,,0.00,WUHU216HW,2013-03-02 13:56:00,
2013-03-02 09:01:00,43.9,35.5,29.93,WNW,293,2.5,4.3,72,0.00,,,0.00,WUHU216HW,2013-03-02 14:01:00,
2013-03-02 09:06:00,43.9,35.2,29.92,WNW,293,0.7,4.3,71,0.00,,,0.00,WUHU216HW,2013-03-02 14:06:00,
2013-03-02 09:11:00,44.8,36.0,29.92,SW,225,1.3,3.4,71,0.00,,,0.00,WUHU216HW,2013-03-02 14:11:00,
2013-03-02 09:16:00,45.2,36.0,29.92,West,270,0.9,2.5,70,0.00,,,0.00,WUHU216HW,2013-03-02 14:16:00,
2013-03-02 09:21:00,45.5,36.4,29.92,West,270,1.8,3.4,70,0.00,,,0.00,WUHU216HW,2013-03-02 14:21:00,
2013-03-02 09:26:00,45.9,36.4,29.92,WSW,248,1.3,3.4,69,0.00,,,0.00,WUHU216HW,2013-03-02 14:26:00,
2013-03-02 09:31:00,46.6,37.0,29.92,WSW,248,2.7,2.7,69,0.00,,,0.00,WUHU216HW,2013-03-02 14:31:00,
2013-03-02 09:36:00,47.2,36.7,29.92,SW,225,2.5,2.7,67,0.00,,,0.00,WUHU216HW,2013-03-02 14:36:00,
2013-03-02 09:41:00,47.5,37.1,29.92,NNW,338,1.1,2.9,67,0.00,,,0.00,WUHU216HW,2013-03-02 14:41:00,
2013-03-02 09:46:00,47.9,37.0,29.92,West,270,3.8,3.8,66,0.00,,,0.00,WUHU216HW,2013-03-02 14:46:00,
2013-03-02 09:51:00,48.2,37.4,29.92,SW,225,2.0,3.8,66,0.00,,,0.00,WUHU216HW,2013-03-02 14:51:00,
2013-03-02 09:56:00,48.8,37.1,29.92,NW,315,1.8,2.9,64,0.00,,,0.00,WUHU216HW,2013-03-02 14:56:00,
2013-03-02 10:01:00,48.6,36.5,29.92,NW,315,0.9,2.9,63,0.00,,,0.00,WUHU216HW,2013-03-02 15:01:00,
2013-03-02 10:06:00,47.9,35.9,29.92,NW,315,3.1,4.0,63,0.00,,,0.00,WUHU216HW,2013-03-02 15:06:00,
2013-03-02 10:11:00,47.3,35.4,29.92,NNW,338,2.5,4.0,63,0.00,,,0.00,WUHU216HW,2013-03-02 15:11:00,
2013-03-02 10:16:00,47.2,35.2,29.91,NNW,338,2.5,2.9,63,0.00,,,0.00,WUHU216HW,2013-03-02 15:16:00,
2013-03-02 10:21:00,47.2,35.2,29.91,WNW,293,0.7,2.9,63,0.00,,,0.00,WUHU216HW,2013-03-02 15:21:00,
2013-03-02 10:26:00,47.5,35.6,29.91,NW,315,0.7,1.8,63,0.00,,,0.00,WUHU216HW,2013-03-02 15:26:00,
2013-03-02 10:31:00,47.7,35.4,29.91,WSW,248,1.8,1.8,62,0.00,,,0.00,WUHU216HW,2013-03-02 15:31:00,
2013-03-02 10:36:00,48.4,35.6,29.91,NW,315,1.3,6.0,61,0.00,,,0.00,WUHU216HW,2013-03-02 15:36:00,
2013-03-02 10:41:00,48.6,35.5,29.90,West,270,1.1,6.0,60,0.00,,,0.00,WUHU216HW,2013-03-02 15:41:00,
2013-03-02 10:46:00,49.0,35.3,29.90,SW,225,3.4,4.3,59,0.00,,,0.00,WUHU216HW,2013-03-02 15:46:00,
2013-03-02 10:51:00,49.3,35.2,29.90,NW,315,2.2,4.3,58,0.00,,,0.00,WUHU216HW,2013-03-02 15:51:00,
2013-03-02 10:56:00,49.3,34.2,29.91,WSW,248,3.4,4.9,56,0.00,,,0.00,WUHU216HW,2013-03-02 15:56:00,
2013-03-02 11:01:00,49.7,35.0,29.90,West,270,2.5,4.9,57,0.00,,,0.00,WUHU216HW,2013-03-02 16:01:00,
2013-03-02 11:06:00,49.9,34.3,29.90,WSW,248,4.0,4.0,55,0.00,,,0.00,WUHU216HW,2013-03-02 16:06:00,
2013-03-02 11:11:00,49.9,34.7,29.90,WNW,293,1.1,4.0,56,0.00,,,0.00,WUHU216HW,2013-03-02 16:11:00,
2013-03-02 11:16:00,50.0,34.9,29.90,West,270,0.9,2.7,56,0.00,,,0.00,WUHU216HW,2013-03-02 16:16:00,
2013-03-02 11:21:00,50.4,34.8,29.90,SW,225,4.9,4.9,55,0.00,,,0.00,WUHU216HW,2013-03-02 16:21:00,
2013-03-02 11:26:00,50.6,34.5,29.90,WSW,248,1.8,4.9,54,0.00,,,0.00,WUHU216HW,2013-03-02 16:26:00,
2013-03-02 11:31:00,50.8,35.1,29.90,WSW,248,0.9,4.9,55,0.00,,,0.00,WUHU216HW,2013-03-02 16:31:00,
2013-03-02 11:36:00,50.9,34.4,29.89,West,270,2.7,4.7,53,0.00,,,0.00,WUHU216HW,2013-03-02 16:36:00,
2013-03-02 11:41:00,50.8,35.1,29.90,NW,315,0.7,4.7,55,0.00,,,0.00,WUHU216HW,2013-03-02 16:41:00,
2013-03-02 11:46:00,50.6,34.9,29.90,NW,315,3.1,3.8,55,0.00,,,0.00,WUHU216HW,2013-03-02 16:46:00,
2013-03-02 11:51:00,50.4,35.3,29.89,NW,315,1.8,3.8,56,0.00,,,0.00,WUHU216HW,2013-03-02 16:51:00,
2013-03-02 11:56:00,50.0,34.9,29.89,NW,315,2.0,4.7,56,0.00,,,0.00,WUHU216HW,2013-03-02 16:56:00,
2013-03-02 12:01:00,49.7,34.6,29.89,NW,315,2.2,4.7,56,0.00,,,0.00,WUHU216HW,2013-03-02 17:01:00,
2013-03-02 12:06:00,50.0,34.9,29.89,NNW,338,1.1,3.4,56,0.00,,,0.00,WUHU216HW,2013-03-02 17:06:00,
2013-03-02 12:11:00,50.2,35.6,29.88,WNW,293,1.1,3.4,57,0.00,,,0.00,WUHU216HW,2013-03-02 17:11:00,
2013-03-02 12:16:00,50.2,35.1,29.88,NW,315,1.8,3.1,56,0.00,,,0.00,WUHU216HW,2013-03-02 17:16:00,
2013-03-02 12:21:00,50.2,34.7,29.88,WNW,293,4.0,4.0,55,0.00,,,0.00,WUHU216HW,2013-03-02 17:21:00,
2013-03-02 12:26:00,50.4,34.8,29.88,WNW,293,0.7,4.0,55,0.00,,,0.00,WUHU216HW,2013-03-02 17:26:00,
2013-03-02 12:31:00,50.6,35.4,29.88,NNW,338,4.0,4.0,56,0.00,,,0.00,WUHU216HW,2013-03-02 17:31:00,
2013-03-02 12:36:00,50.4,34.8,29.88,West,270,3.1,4.0,55,0.00,,,0.00,WUHU216HW,2013-03-02 17:36:00,
2013-03-02 12:41:00,50.0,34.5,29.87,NNW,338,3.4,3.8,55,0.00,,,0.00,WUHU216HW,2013-03-02 17:41:00,
2013-03-02 12:46:00,49.9,34.3,29.87,West,270,1.1,4.3,55,0.00,,,0.00,WUHU216HW,2013-03-02 17:46:00,
2013-03-02 12:51:00,50.0,34.9,29.87,WSW,248,1.8,4.3,56,0.00,,,0.00,WUHU216HW,2013-03-02 17:51:00,
2013-03-02 12:56:00,50.8,35.1,29.87,WNW,293,2.7,3.1,55,0.00,,,0.00,WUHU216HW,2013-03-02 17:56:00,
2013-03-02 13:01:00,51.5,35.3,29.86,WSW,248,2.2,3.6,54,0.00,,,0.00,WUHU216HW,2013-03-02 18:01:00,
2013-03-02 13:06:00,51.8,35.2,29.86,WSW,248,1.1,4.5,53,0.00,,,0.00,WUHU216HW,2013-03-02 18:06:00,
2013-03-02 13:11:00,52.0,35.4,29.86,NW,315,1.8,4.5,53,0.00,,,0.00,WUHU216HW,2013-03-02 18:11:00,
2013-03-02 13:16:00,52.4,35.7,29.86,North,0,0.4,2.7,53,0.00,,,0.00,WUHU216HW,2013-03-02 18:16:00,
2013-03-02 13:21:00,52.7,35.1,29.85,WSW,248,3.4,3.4,51,0.00,,,0.00,WUHU216HW,2013-03-02 18:21:00,
2013-03-02 13:26:00,52.6,35.4,29.85,North,0,5.1,5.1,52,0.00,,,0.00,WUHU216HW,2013-03-02 18:26:00,
2013-03-02 13:31:00,52.0,34.5,29.85,West,270,1.8,5.1,51,0.00,,,0.00,WUHU216HW,2013-03-02 18:31:00,
2013-03-02 13:36:00,51.8,34.7,29.86,NNW,338,2.2,2.7,52,0.00,,,0.00,WUHU216HW,2013-03-02 18:36:00,
2013-03-02 13:41:00,51.5,34.4,29.86,West,270,1.1,3.4,52,0.00,,,0.00,WUHU216HW,2013-03-02 18:41:00,
2013-03-02 13:46:00,51.5,33.9,29.85,WSW,248,3.4,4.0,51,0.00,,,0.00,WUHU216HW,2013-03-02 18:46:00,
2013-03-02 13:51:00,51.3,34.3,29.85,NNW,338,1.8,4.0,52,0.00,,,0.00,WUHU216HW,2013-03-02 18:51:00,
2013-03-02 13:56:00,51.1,34.1,29.85,NNW,338,1.8,3.6,52,0.00,,,0.00,WUHU216HW,2013-03-02 18:56:00,
2013-03-02 14:01:00,50.9,33.9,29.85,WSW,248,2.5,3.6,52,0.00,,,0.00,WUHU216HW,2013-03-02 19:01:00,
2013-03-02 14:06:00,50.8,33.8,29.85,West,270,1.3,2.5,52,0.00,,,0.00,WUHU216HW,2013-03-02 19:06:00,
2013-03-02 14:11:00,50.9,34.4,29.85,NW,315,2.2,3.4,53,0.00,,,0.00,WUHU216HW,2013-03-02 19:11:00,
2013-03-02 14:16:00,50.8,34.2,29.85,West,270,3.8,3.8,53,0.00,,,0.00,WUHU216HW,2013-03-02 19:16:00,
2013-03-02 14:21:00,50.4,33.9,29.85,WSW,248,0.4,3.8,53,0.00,,,0.00,WUHU216HW,2013-03-02 19:21:00,
2013-03-02 14:26:00,50.4,33.9,29.85,West,270,1.3,4.0,53,0.00,,,0.00,WUHU216HW,2013-03-02 19:26:00,
2013-03-02 14:31:00,50.4,33.9,29.85,NNW,338,1.6,4.0,53,0.00,,,0.00,WUHU216HW,2013-03-02 19:31:00,
2013-03-02 14:36:00,50.0,33.6,29.85,NW,315,3.8,4.9,53,0.00,,,0.00,WUHU216HW,2013-03-02 19:36:00,
2013-03-02 14:41:00,49.9,33.4,29.85,NNW,338,3.6,4.9,53,0.00,,,0.00,WUHU216HW,2013-03-02 19:41:00,
2013-03-02 14:46:00,49.7,33.2,29.85,West,270,2.5,5.4,53,0.00,,,0.00,WUHU216HW,2013-03-02 19:46:00,
2013-03-02 14:51:00,49.5,33.5,29.85,NW,315,2.5,5.4,54,0.00,,,0.00,WUHU216HW,2013-03-02 19:51:00,
2013-03-02 14:56:00,49.3,33.3,29.85,NE,45,2.9,3.4,54,0.00,,,0.00,WUHU216HW,2013-03-02 19:56:00,
2013-03-02 15:01:00,49.3,33.8,29.85,West,270,2.5,3.4,55,0.00,,,0.00,WUHU216HW,2013-03-02 20:01:00,
2013-03-02 15:06:00,49.3,33.8,29.85,WSW,248,0.4,3.4,55,0.00,,,0.00,WUHU216HW,2013-03-02 20:06:00,
2013-03-02 15:11:00,49.3,33.8,29.86,NNW,338,3.4,3.4,55,0.00,,,0.00,WUHU216HW,2013-03-02 20:11:00,
2013-03-02 15:16:00,49.3,33.8,29.86,NW,315,3.8,4.9,55,0.00,,,0.00,WUHU216HW,2013-03-02 20:16:00,
2013-03-02 15:21:00,49.1,33.7,29.86,NW,315,1.8,4.9,55,0.00,,,0.00,WUHU216HW,2013-03-02 20:21:00,
2013-03-02 15:26:00,49.0,33.5,29.85,WNW,293,2.5,4.9,55,0.00,,,0.00,WUHU216HW,2013-03-02 20:26:00,
2013-03-02 15:31:00,48.8,33.8,29.86,North,0,4.0,4.9,56,0.00,,,0.00,WUHU216HW,2013-03-02 20:31:00,
2013-03-02 15:36:00,48.6,33.6,29.86,NW,315,4.7,5.4,56,0.00,,,0.00,WUHU216HW,2013-03-02 20:36:00,
2013-03-02 15:41:00,48.4,33.4,29.86,NW,315,3.1,5.4,56,0.00,,,0.00,WUHU216HW,2013-03-02 20:41:00,
2013-03-02 15:46:00,48.4,33.4,29.86,NW,315,2.5,4.5,56,0.00,,,0.00,WUHU216HW,2013-03-02 20:46:00,
2013-03-02 15:51:00,48.2,33.7,29.86,WNW,293,1.8,4.9,57,0.00,,,0.00,WUHU216HW,2013-03-02 20:51:00,
2013-03-02 15:56:00,48.2,33.7,29.86,WNW,293,1.8,4.9,57,0.00,,,0.00,WUHU216HW,2013-03-02 20:56:00,
2013-03-02 16:01:00,48.2,33.7,29.86,NW,315,1.8,2.5,57,0.00,,,0.00,WUHU216HW,2013-03-02 21:01:00,
2013-03-02 16:06:00,48.1,33.5,29.86,NW,315,2.5,3.1,57,0.00,,,0.00,WUHU216HW,2013-03-02 21:06:00,
2013-03-02 16:11:00,47.9,33.4,29.87,NW,315,1.8,4.0,57,0.00,,,0.00,WUHU216HW,2013-03-02 21:11:00,
2013-03-02 16:16:00,47.9,33.4,29.87,NNW,338,1.1,4.0,57,0.00,,,0.00,WUHU216HW,2013-03-02 21:16:00,
2013-03-02 16:21:00,47.7,33.7,29.87,NW,315,3.8,4.0,58,0.00,,,0.00,WUHU216HW,2013-03-02 21:21:00,
2013-03-02 16:26:00,47.7,33.7,29.87,NW,315,2.2,3.8,58,0.00,,,0.00,WUHU216HW,2013-03-02 21:26:00,
2013-03-02 16:31:00,47.5,33.5,29.87,NW,315,2.2,3.4,58,0.00,,,0.00,WUHU216HW,2013-03-02 21:31:00,
2013-03-02 16:36:00,47.5,33.5,29.86,NNW,338,1.1,3.4,58,0.00,,,0.00,WUHU216HW,2013-03-02 21:36:00,
2013-03-02 16:41:00,47.5,33.9,29.87,NNW,338,2.5,4.5,59,0.00,,,0.00,WUHU216HW,2013-03-02 21:41:00,
2013-03-02 16:46:00,47.5,33.9,29.86,NW,315,2.9,4.5,59,0.00,,,0.00,WUHU216HW,2013-03-02 21:46:00,
2013-03-02 16:51:00,47.5,33.9,29.87,NNW,338,3.4,3.4,59,0.00,,,0.00,WUHU216HW,2013-03-02 21:51:00,
2013-03-02 16:56:00,47.3,33.8,29.87,NNW,338,0.4,3.4,59,0.00,,,0.00,WUHU216HW,2013-03-02 21:56:00,
2013-03-02 17:01:00,47.5,33.9,29.87,NW,315,6.0,6.0,59,0.00,,,0.00,WUHU216HW,2013-03-02 22:01:00,
2013-03-02 17:06:00,47.3,33.8,29.87,NW,315,1.3,6.0,59,0.00,,,0.00,WUHU216HW,2013-03-02 22:06:00,
2013-03-02 17:11:00,47.3,34.2,29.87,WNW,293,1.1,3.4,60,0.00,,,0.00,WUHU216HW,2013-03-02 22:11:00,
2013-03-02 17:16:00,47.2,34.0,29.87,NW,315,2.9,3.6,60,0.00,,,0.00,WUHU216HW,2013-03-02 22:16:00,
2013-03-02 17:21:00,47.2,34.0,29.88,NW,315,3.4,3.6,60,0.00,,,0.00,WUHU216HW,2013-03-02 22:21:00,
2013-03-02 17:26:00,47.2,34.0,29.88,NW,315,1.1,3.4,60,0.00,,,0.00,WUHU216HW,2013-03-02 22:26:00,
2013-03-02 17:31:00,47.2,34.0,29.88,NW,315,1.6,4.0,60,0.00,,,0.00,WUHU216HW,2013-03-02 22:31:00,
2013-03-02 17:36:00,47.0,33.4,29.88,WNW,293,2.2,4.0,59,0.00,,,0.00,WUHU216HW,2013-03-02 22:36:00,
2013-03-02 17:41:00,47.0,33.8,29.88,WNW,293,1.8,2.2,60,0.00,,,0.00,WUHU216HW,2013-03-02 22:41:00,
2013-03-02 17:46:00,46.8,33.7,29.89,NNW,338,1.1,1.8,60,0.00,,,0.00,WUHU216HW,2013-03-02 22:46:00,
2013-03-02 17:51:00,46.8,33.7,29.89,NNW,338,1.8,2.2,60,0.00,,,0.00,WUHU216HW,2013-03-02 22:51:00,
2013-03-02 17:56:00,46.8,33.7,29.89,NNW,338,0.4,2.2,60,0.00,,,0.00,WUHU216HW,2013-03-02 22:56:00,
2013-03-02 18:01:00,46.6,33.8,29.89,NNW,338,2.9,4.7,61,0.00,,,0.00,WUHU216HW,2013-03-02 23:01:00,
2013-03-02 18:06:00,46.4,33.7,29.89,NW,315,0.2,4.7,61,0.00,,,0.00,WUHU216HW,2013-03-02 23:06:00,
2013-03-02 18:11:00,46.4,33.7,29.89,NNW,338,2.2,4.5,61,0.00,,,0.00,WUHU216HW,2013-03-02 23:11:00,
2013-03-02 18:16:00,46.4,33.7,29.90,NW,315,1.1,2.7,61,0.00,,,0.00,WUHU216HW,2013-03-02 23:16:00,
2013-03-02 18:21:00,46.3,33.6,29.90,NW,315,2.0,2.5,61,0.00,,,0.00,WUHU216HW,2013-03-02 23:21:00,
2013-03-02 18:26:00,46.3,33.9,29.90,NW,315,0.9,2.2,62,0.00,,,0.00,WUHU216HW,2013-03-02 23:26:00,
2013-03-02 18:31:00,46.3,33.9,29.90,NW,315,1.3,3.1,62,0.00,,,0.00,WUHU216HW,2013-03-02 23:31:00,
2013-03-02 18:36:00,46.1,33.8,29.90,NW,315,0.7,3.1,62,0.00,,,0.00,WUHU216HW,2013-03-02 23:36:00,
2013-03-02 18:41:00,46.1,33.8,29.90,NNW,338,1.1,2.0,62,0.00,,,0.00,WUHU216HW,2013-03-02 23:41:00,
2013-03-02 18:46:00,46.1,33.8,29.90,NNW,338,1.6,1.8,62,0.00,,,0.00,WUHU216HW,2013-03-02 23:46:00,
2013-03-02 18:51:00,45.9,33.6,29.90,NW,315,1.1,1.8,62,0.00,,,0.00,WUHU216HW,2013-03-02 23:51:00,
2013-03-02 18:56:00,45.7,33.9,29.90,NW,315,0.4,1.8,63,0.00,,,0.00,WUHU216HW,2013-03-02 23:56:00,
2013-03-02 19:01:00,45.7,33.9,29.90,WNW,293,0.9,2.2,63,0.00,,,0.00,WUHU216HW,2013-03-03 00:01:00,
2013-03-02 19:06:00,45.7,33.9,29.90,NW,315,1.1,2.2,63,0.00,,,0.00,WUHU216HW,2013-03-03 00:06:00,
2013-03-02 19:11:00,45.7,33.9,29.90,NNW,338,2.5,2.5,63,0.00,,,0.00,WUHU216HW,2013-03-03 00:11:00,
2013-03-02 19:16:00,45.7,33.9,29.91,NW,315,0.7,2.5,63,0.00,,,0.00,WUHU216HW,2013-03-03 00:16:00,
2013-03-02 19:21:00,45.7,33.9,29.91,NW,315,0.9,1.8,63,0.00,,,0.00,WUHU216HW,2013-03-03 00:21:00,
2013-03-02 19:26:00,45.5,33.7,29.91,NW,315,0.7,1.1,63,0.00,,,0.00,WUHU216HW,2013-03-03 00:26:00,
2013-03-02 19:31:00,45.5,34.0,29.91,NNW,338,0.4,1.1,64,0.00,,,0.00,WUHU216HW,2013-03-03 00:31:00,
2013-03-02 19:36:00,45.4,33.8,29.91,NW,315,0.4,1.1,64,0.00,,,0.00,WUHU216HW,2013-03-03 00:36:00,
2013-03-02 19:41:00,45.4,33.8,29.91,NNW,338,1.1,1.1,64,0.00,,,0.00,WUHU216HW,2013-03-03 00:41:00,
2013-03-02 19:46:00,45.2,33.7,29.91,WNW,293,0.7,1.1,64,0.00,,,0.00,WUHU216HW,2013-03-03 00:46:00,
2013-03-02 19:51:00,45.0,33.6,29.92,NW,315,0.4,1.1,64,0.00,,,0.00,WUHU216HW,2013-03-03 00:51:00,
2013-03-02 19:56:00,45.0,33.9,29.92,NW,315,0.2,0.9,65,0.00,,,0.00,WUHU216HW,2013-03-03 00:56:00,
2013-03-02 20:01:00,45.0,33.9,29.92,NW,315,0.9,0.9,65,0.00,,,0.00,WUHU216HW,2013-03-03 01:01:00,
2013-03-02 20:06:00,44.8,33.8,29.92,NW,315,0.4,0.9,65,0.00,,,0.00,WUHU216HW,2013-03-03 01:06:00,
2013-03-02 20:11:00,44.6,33.6,29.92,NW,315,0.0,0.4,65,0.00,,,0.00,WUHU216HW,2013-03-03 01:11:00,
2013-03-02 20:16:00,44.6,33.9,29.92,NW,315,0.0,0.0,66,0.00,,,0.00,WUHU216HW,2013-03-03 01:16:00,
2013-03-02 20:21:00,44.5,33.8,29.92,NW,315,0.0,0.0,66,0.00,,,0.00,WUHU216HW,2013-03-03 01:21:00,
2013-03-02 20:26:00,44.3,33.6,29.92,NW,315,0.0,0.0,66,0.00,,,0.00,WUHU216HW,2013-03-03 01:26:00,
2013-03-02 20:31:00,44.3,33.6,29.93,NW,315,0.0,0.0,66,0.00,,,0.00,WUHU216HW,2013-03-03 01:31:00,
2013-03-02 20:36:00,44.1,33.5,29.93,NW,315,0.4,0.4,66,0.00,,,0.00,WUHU216HW,2013-03-03 01:36:00,
2013-03-02 20:41:00,43.9,33.3,29.93,NW,315,0.0,0.4,66,0.00,,,0.00,WUHU216HW,2013-03-03 01:41:00,
2013-03-02 20:46:00,43.7,33.5,29.93,NW,315,0.0,0.4,67,0.00,,,0.00,WUHU216HW,2013-03-03 01:46:00,
2013-03-02 20:51:00,43.6,33.3,29.93,NW,315,0.0,0.0,67,0.00,,,0.00,WUHU216HW,2013-03-03 01:51:00,
2013-03-02 20:56:00,43.6,33.3,29.93,NW,315,0.0,0.0,67,0.00,,,0.00,WUHU216HW,2013-03-03 01:56:00,
2013-03-02 21:01:00,43.6,33.8,29.94,NW,315,0.0,0.0,68,0.00,,,0.00,WUHU216HW,2013-03-03 02:01:00,
2013-03-02 21:06:00,43.4,33.6,29.94,NW,315,0.0,0.0,68,0.00,,,0.00,WUHU216HW,2013-03-03 02:06:00,
2013-03-02 21:11:00,43.2,33.4,29.94,NW,315,0.0,0.0,68,0.00,,,0.00,WUHU216HW,2013-03-03 02:11:00,
2013-03-02 21:16:00,43.0,33.2,29.94,NW,315,0.0,0.0,68,0.00,,,0.00,WUHU216HW,2013-03-03 02:16:00,
2013-03-02 21:21:00,42.8,33.0,29.94,NW,315,0.0,0.0,68,0.00,,,0.00,WUHU216HW,2013-03-03 02:21:00,
2013-03-02 21:26:00,42.7,32.9,29.94,NW,315,0.0,0.0,68,0.00,,,0.00,WUHU216HW,2013-03-03 02:26:00,
2013-03-02 21:31:00,42.5,33.1,29.94,NW,315,0.0,0.0,69,0.00,,,0.00,WUHU216HW,2013-03-03 02:31:00,
2013-03-02 21:36:00,42.3,33.0,29.94,NW,315,0.0,0.0,69,0.00,,,0.00,WUHU216HW,2013-03-03 02:36:00,
2013-03-02 21:41:00,42.1,33.1,29.94,NW,315,0.0,0.0,70,0.00,,,0.00,WUHU216HW,2013-03-03 02:41:00,
2013-03-02 21:46:00,42.1,33.1,29.94,NW,315,0.0,0.0,70,0.00,,,0.00,WUHU216HW,2013-03-03 02:46:00,
2013-03-02 21:51:00,41.9,32.6,29.94,NW,315,0.0,0.0,69,0.00,,,0.00,WUHU216HW,2013-03-03 02:51:00,
2013-03-02 21:56:00,41.8,32.4,29.94,NW,315,0.0,0.0,69,0.00,,,0.00,WUHU216HW,2013-03-03 02:56:00,
2013-03-02 22:01:00,41.6,32.6,29.94,NNW,338,0.0,0.0,70,0.00,,,0.00,WUHU216HW,2013-03-03 03:01:00,
2013-03-02 22:06:00,41.4,32.4,29.94,NNW,338,0.0,0.0,70,0.00,,,0.00,WUHU216HW,2013-03-03 03:06:00,
2013-03-02 22:11:00,41.4,32.4,29.94,NW,315,0.0,0.0,70,0.00,,,0.00,WUHU216HW,2013-03-03 03:11:00,
2013-03-02 22:16:00,41.4,32.4,29.94,NW,315,0.0,0.0,70,0.00,,,0.00,WUHU216HW,2013-03-03 03:16:00,
2013-03-02 22:21:00,41.2,32.2,29.94,NW,315,0.0,0.0,70,0.00,,,0.00,WUHU216HW,2013-03-03 03:21:00,
2013-03-02 22:26:00,41.2,32.2,29.94,NW,315,0.0,0.0,70,0.00,,,0.00,WUHU216HW,2013-03-03 03:26:00,
2013-03-02 22:31:00,41.2,32.6,29.94,NW,315,0.0,0.0,71,0.00,,,0.00,WUHU216HW,2013-03-03 03:31:00,
2013-03-02 22:36:00,41.0,32.4,29.94,NW,315,0.0,0.0,71,0.00,,,0.00,WUHU216HW,2013-03-03 03:36:00,
2013-03-02 22:41:00,41.0,32.4,29.94,NNW,338,0.0,0.0,71,0.00,,,0.00,WUHU216HW,2013-03-03 03:41:00,
2013-03-02 22:46:00,40.9,32.2,29.94,NW,315,0.0,0.0,71,0.00,,,0.00,WUHU216HW,2013-03-03 03:46:00,
2013-03-02 22:51:00,40.9,32.2,29.94,NNW,338,0.0,0.2,71,0.00,,,0.00,WUHU216HW,2013-03-03 03:51:00,
2013-03-02 22:56:00,40.7,32.1,29.93,NNW,338,0.0,0.2,71,0.00,,,0.00,WUHU216HW,2013-03-03 03:56:00,
2013-03-02 23:01:00,40.7,32.1,29.93,NNW,338,0.2,0.2,71,0.00,,,0.00,WUHU216HW,2013-03-03 04:01:00,
2013-03-02 23:06:00,40.5,31.9,29.93,NW,315,0.0,0.7,71,0.00,,,0.00,WUHU216HW,2013-03-03 04:06:00,
2013-03-02 23:11:00,40.5,32.1,29.93,NW,315,0.0,0.7,72,0.00,,,0.00,WUHU216HW,2013-03-03 04:11:00,
2013-03-02 23:16:00,40.3,32.0,29.93,NW,315,0.0,0.4,72,0.00,,,0.00,WUHU216HW,2013-03-03 04:16:00,
2013-03-02 23:21:00,40.3,32.0,29.93,WNW,293,0.2,0.2,72,0.00,,,0.00,WUHU216HW,2013-03-03 04:21:00,
2013-03-02 23:26:00,40.3,32.0,29.93,NNW,338,0.7,0.7,72,0.00,,,0.00,WUHU216HW,2013-03-03 04:26:00,
2013-03-02 23:31:00,40.1,31.8,29.93,NNW,338,0.2,0.7,72,0.00,,,0.00,WUHU216HW,2013-03-03 04:31:00,
2013-03-02 23:36:00,40.1,31.8,29.92,NW,315,0.2,0.7,72,0.00,,,0.00,WUHU216HW,2013-03-03 04:36:00,
2013-03-02 23:41:00,40.1,31.8,29.93,NW,315,0.4,0.9,72,0.00,,,0.00,WUHU216HW,2013-03-03 04:41:00,
2013-03-02 23:46:00,40.1,31.8,29.92,NW,315,0.4,0.9,72,0.00,,,0.00,WUHU216HW,2013-03-03 04:46:00,
2013-03-02 23:51:00,40.1,32.1,29.92,NW,315,0.7,1.1,73,0.00,,,0.00,WUHU216HW,2013-03-03 04:51:00,
2013-03-02 23:56:00,40.1,32.1,29.92,NW,315,1.8,1.8,73,0.00,,,0.00,WUHU216HW,2013-03-03 04:56:00,